[[{"header":{"parameterUnit":"m.s-1","parameterCategory":1,"la1":30.2991,"la2":30.254,"lo1":-89.0895,"lo2":-89.0444,"dy":0.0017,"dx":0.0017,"nx":28,"ny":28,"refTime":"2023-08-07T09:00:00:Z","depth":0,"parameterNumber":2,"parameterNumberName":"U-component_of_WINDS"},"data":[0,0,0,0,0,0,0,0,0,0,0,0,0,0,0,0,0,0,0,0,0,0,0,0,0,0,0,0,0,0,0,0,0,0,0,0,0,0,0,0,0,0,0,0,0,0,0,0,0,0,0,0,0,0,0,0,0,0,0.0362,0.0364,0,0.0531,0.0533,0.0535,0.0613,0.0612,0.0612,0.0612,0.0791,0.0796,0.0801,0,0,0,0,0,0,0,0,0,0,0,0,0,0.0112,0.0116,0.0362,0.0364,0.0366,0.0531,0.0533,0.0536,0.0613,0.0612,0.0612,0.0612,0.0789,0.0795,0.0801,0,0,0,0,0,0,0,0,0,0,0,0,0,0.0245,0.0117,0.0362,0.0425,0.0432,0.053,0.0533,0.0536,0.0613,0.0612,0.0612,0.0612,0.0787,0.0795,0.0802,0.0853,0,0,0.0824,0.0828,0,0,0,0,0,0,0,0,0.0237,0.0254,0.0413,0.042,0.0429,0.055,0.0511,0.0643,0.0613,0.0544,0.0612,0.0612,0.0712,0.0725,0.0758,0.0861,0.0869,0.0825,0.083,0.0833,0.0835,0,0,0,0,0,0,0,0.0228,0.0247,0.0429,0.0415,0.0425,0.0446,0.0465,0.0536,0.0627,0.055,0.0556,0.0575,0.0716,0.075,0.0762,0.0871,0.0825,0.0831,0.0836,0.0839,0.1026,0.1026,0,0,0,0,0,0,0.0208,0.0239,0.0424,0.0434,0.033,0.0451,0.0472,0.0512,0.0627,0.0644,0.0575,0.0578,0.0738,0.0754,0.0769,0.0836,0.0833,0.084,0.0844,0.1025,0.1026,0.1027,0,0,0,0,0,0,0.0202,0.0223,0.0417,0.0338,0.0365,0.0455,0.05,0.0515,0.055,0.0645,0.0663,0.0593,0.0738,0.0759,0.0831,0.0844,0.0843,0.085,0.1025,0.1026,0.1026,0.0971,0,0,0,0,0,0,0.0194,0.0221,0.024,0.0338,0.0368,0.0474,0.0501,0.0519,0.0562,0.0567,0.0667,0.0683,0.074,0.0819,0.0838,0.0854,0.0855,0.1024,0.1025,0.1026,0.0972,0.097,0.0968,0,0,0,0,0,0.0185,0.0219,0.024,0.0262,0.0394,0.0475,0.0493,0.0555,0.0562,0.0583,0.0644,0.068,0.0839,0.0826,0.0848,0.0866,0.1024,0.1025,0.1026,0.0973,0.097,0.0968,0,0,0,0,0,0,0.0121,0.0233,0.0258,0.0324,0.0389,0.0488,0.0516,0.055,0.0616,0.0619,0.0695,0.0717,0.0783,0.0832,0.0816,0.0922,0.0935,0.094,0.0887,0.0885,0.0883,0.087,0.0862,0,0,0,0,0,0.0114,0.0169,0.0265,0.0314,0.0345,0.0424,0.0462,0.0504,0.0576,0.0605,0.0672,0.0741,0.0807,0.0849,0.0915,0.098,0.1003,0.1003,0.1001,0.0998,0.1003,0.1041,0.1043,0.1031,0.1031,0.1031,0,0,0.0102,0.017,0.02,0.0303,0.0358,0.0415,0.0447,0.0506,0.055,0.0614,0.0686,0.0738,0.0821,0.0889,0.0923,0.0932,0.1011,0.1,0.0997,0.1003,0.1043,0.1044,0.1045,0.1031,0.1031,0.1031,0,0,0.0108,0.0164,0.0211,0.0266,0.0349,0.0401,0.0412,0.0506,0.0542,0.0615,0.0665,0.0719,0.083,0.0887,0.0931,0.0958,0.0994,0.0977,0.0967,0.1004,0.1004,0.1006,0.1016,0.1019,0.0981,0.0981,0.0981,0,0.0082,0.0168,0.0232,0.0288,0.0332,0.0391,0.044,0.0491,0.0591,0.0622,0.063,0.0771,0.0831,0.0914,0.092,0.0953,0.097,0.0967,0.0999,0.1001,0.1003,0.1014,0.1017,0.0979,0.0979,0.0979,0.0979,0,0.0133,0.0192,0.022,0.0314,0.0362,0.0414,0.0487,0.0528,0.0565,0.0617,0.0692,0.0766,0.0847,0.087,0.0909,0.0959,0.0963,0.0984,0.0998,0.1,0.1012,0.1017,0.0975,0.0976,0.0977,0.0977,0,0,0.0104,0.0231,0.0241,0.0284,0.038,0.0428,0.0483,0.0561,0.0595,0.0663,0.0712,0.0805,0.0825,0.0874,0.092,0.0952,0.097,0.097,0.0973,0.0968,0.1031,0.1014,0.1018,0.0993,0.0994,0.0995,0.1024,0,0.0124,0.0224,0.0282,0.0359,0.0415,0.0472,0.052,0.0585,0.0635,0.0692,0.0748,0.0812,0.0834,0.0864,0.0898,0.096,0.0983,0.0959,0.1042,0.1044,0.102,0.1024,0.1007,0.1031,0.1029,0.103,0.103,0,0.016,0.0224,0.0306,0.0395,0.0421,0.0463,0.054,0.0592,0.0668,0.0702,0.0756,0.0802,0.0864,0.0873,0.0961,0.0943,0.0981,0.1016,0.1019,0.103,0.1038,0.1036,0.104,0.1043,0.1038,0.1037,0.1037,0,0.0131,0.0239,0.0302,0.0337,0.0443,0.0471,0.0517,0.0592,0.0635,0.0703,0.0732,0.0806,0.0847,0.0904,0.0969,0.0969,0.1051,0.1065,0.1083,0.1081,0.1098,0.1096,0.1109,0.1121,0.1121,0.1121,0.1121,0,0.0148,0.0196,0.029,0.0329,0.0385,0.0452,0.0506,0.0557,0.0623,0.0674,0.0728,0.0775,0.0857,0.0915,0.0966,0.1032,0.105,0.1081,0.1094,0.1076,0.1072,0.1103,0.1103,0.1122,0.1122,0.1121,0.1121,0,0.0125,0.019,0.0263,0.0356,0.0381,0.0418,0.0499,0.054,0.0592,0.0656,0.0675,0.0758,0.0829,0.0899,0.0995,0.1029,0.1094,0.1112,0.1068,0.1075,0.1089,0.1087,0.1122,0.1131,0.1136,0.1135,0.1135,0,0.0132,0.017,0.0267,0.0304,0.0348,0.0407,0.0451,0.0519,0.0563,0.0651,0.0682,0.0755,0.0818,0.0929,0.0999,0.1073,0.1093,0.11,0.1105,0.1086,0.1094,0.1091,0.1096,0.1098,0.1098,0.1097,0.1097,0,0.0136,0.0166,0.0226,0.0298,0.0348,0.0408,0.0471,0.0498,0.0579,0.0626,0.0697,0.0746,0.0843,0.0916,0.0998,0.1047,0.1086,0.1095,0.1103,0.1086,0.1059,0.1074,0.1063,0.1094,0.1094,0.1095,0.1095,0.1095,0.0129,0.0166,0.0239,0.0305,0.0358,0.0415,0.0458,0.0515,0.0575,0.0658,0.0695,0.0767,0.0843,0.0956,0.1005,0.1063,0.1074,0.1085,0.1088,0.109,0.1086,0.1049,0.1079,0.1079,0.1079,0.1079,0.1079,0,0.0137,0.0187,0.0246,0.0331,0.0383,0.0412,0.0483,0.0525,0.0587,0.0653,0.0713,0.0796,0.0867,0.0942,0.1019,0.1051,0.1071,0.1069,0.1068,0.1079,0.1073,0.1058,0.1052,0.1052,0.1052,0.1052,0.1052,0.1052,0.0147,0.0211,0.0249,0.034,0.0391,0.046,0.0498,0.0551,0.0604,0.0693,0.0752,0.08,0.087,0.0952,0.1019,0.104,0.1066,0.1059,0.1084,0.1077,0.1079,0.1081,0.1068,0.1063,0.1063,0.1086,0.1086,0.1086]},{"header":{"parameterUnit":"m.s-1","parameterCategory":1,"la1":30.2991,"la2":30.254,"lo1":-89.0895,"lo2":-89.0444,"dy":0.0017,"dx":0.0017,"nx":28,"ny":28,"refTime":"2023-08-07T09:00:00:Z","depth":0,"parameterNumber":3,"parameterNumberName":"V-component_of_WINDS"},"data":[0,0,0,0,0,0,0,0,0,0,0,0,0,0,0,0,0,0,0,0,0,0,0,0,0,0,0,0,0,0,0,0,0,0,0,0,0,0,0,0,0,0,0,0,0,0,0,0,0,0,0,0,0,0,0,0,0,0,3.1284,3.1285,0,3.1304,3.1304,3.1304,3.1305,3.1305,3.1305,3.1304,3.1322,3.1323,3.1323,0,0,0,0,0,0,0,0,0,0,0,0,0,3.1243,3.1244,3.1284,3.1285,3.1285,3.1304,3.1304,3.1304,3.1305,3.1305,3.1305,3.1304,3.1322,3.1323,3.1323,0,0,0,0,0,0,0,0,0,0,0,0,0,3.1262,3.1245,3.1284,3.1288,3.1288,3.1304,3.1304,3.1304,3.1305,3.1305,3.1304,3.1304,3.1321,3.1322,3.1323,3.1337,0,0,3.1327,3.1327,0,0,0,0,0,0,0,0,3.1261,3.1263,3.1287,3.1287,3.1288,3.1302,3.1296,3.1315,3.1305,3.1299,3.1304,3.1304,3.1315,3.1317,3.1321,3.1337,3.1338,3.1327,3.1327,3.1328,3.1328,0,0,0,0,0,0,0,3.126,3.1262,3.1292,3.1287,3.1288,3.1287,3.1289,3.13,3.1309,3.1299,3.1299,3.1302,3.1316,3.132,3.1322,3.1338,3.1327,3.1328,3.1328,3.1329,3.1363,3.1363,0,0,0,0,0,0,3.1258,3.1261,3.1291,3.1293,3.1273,3.1288,3.129,3.1298,3.1308,3.131,3.1302,3.1302,3.1319,3.132,3.1322,3.1336,3.1328,3.1329,3.1329,3.1363,3.1363,3.1364,0,0,0,0,0,0,3.1257,3.1261,3.1291,3.1277,3.1281,3.1289,3.1297,3.1298,3.1303,3.1311,3.1312,3.1305,3.1318,3.1321,3.1332,3.1337,3.1329,3.133,3.1362,3.1363,3.1363,3.1366,0,0,0,0,0,0,3.1256,3.1261,3.1267,3.1277,3.1281,3.1302,3.1297,3.1299,3.1305,3.1305,3.1314,3.1315,3.1318,3.1331,3.1333,3.1338,3.1331,3.1362,3.1363,3.1363,3.1366,3.1367,3.1367,0,0,0,0,0,3.1255,3.1267,3.1267,3.1271,3.129,3.1302,3.1304,3.1308,3.1305,3.1311,3.1315,3.1315,3.1336,3.1332,3.1335,3.134,3.1362,3.1363,3.1363,3.1365,3.1366,3.1367,0,0,0,0,0,0,3.1257,3.1268,3.1269,3.1285,3.1293,3.1302,3.1309,3.131,3.1318,3.1317,3.1321,3.1323,3.1334,3.1338,3.1334,3.1352,3.1348,3.135,3.1349,3.135,3.1351,3.1349,3.1332,0,0,0,0,0,3.1259,3.1269,3.1279,3.1292,3.1296,3.1302,3.1307,3.131,3.1317,3.132,3.1326,3.1332,3.134,3.1345,3.1353,3.1366,3.1367,3.1371,3.1372,3.1372,3.1373,3.1378,3.1379,3.1366,3.1366,3.1366,0,0,3.1264,3.1272,3.1278,3.1292,3.1298,3.1307,3.1305,3.1315,3.1321,3.1322,3.1333,3.1337,3.1344,3.1356,3.1361,3.136,3.1377,3.1373,3.1374,3.1374,3.1379,3.138,3.1381,3.1366,3.1366,3.1366,0,0,3.1277,3.1285,3.1296,3.1302,3.1311,3.1314,3.1317,3.1326,3.1329,3.134,3.134,3.1347,3.1361,3.1365,3.137,3.1382,3.1381,3.1384,3.1389,3.1393,3.1394,3.1395,3.1398,3.1399,3.1385,3.1385,3.1385,0,3.1282,3.1297,3.1301,3.1311,3.1316,3.1317,3.1326,3.1332,3.1343,3.1346,3.1344,3.136,3.1365,3.1377,3.138,3.1384,3.1385,3.1383,3.1394,3.1395,3.1396,3.1398,3.14,3.1385,3.1385,3.1385,3.1385,0,3.1301,3.1311,3.1318,3.1329,3.1335,3.1344,3.1348,3.1354,3.1355,3.1358,3.1368,3.1374,3.1382,3.1385,3.1386,3.1396,3.1395,3.1393,3.139,3.1397,3.14,3.1401,3.1386,3.1385,3.1385,3.1385,0,0,3.1318,3.1329,3.1331,3.1335,3.1344,3.1351,3.1359,3.1367,3.1371,3.1378,3.1384,3.1395,3.1393,3.1397,3.1399,3.1403,3.141,3.1401,3.1401,3.1401,3.1419,3.1419,3.1421,3.141,3.141,3.141,3.1418,0,3.1331,3.1347,3.135,3.1363,3.1371,3.137,3.1377,3.1383,3.1385,3.1391,3.1394,3.1401,3.1399,3.1401,3.1406,3.1408,3.1413,3.1408,3.1414,3.1414,3.1412,3.1422,3.1423,3.1431,3.1419,3.1419,3.142,0,3.1349,3.1355,3.137,3.1375,3.1379,3.1385,3.1391,3.1398,3.1403,3.1404,3.1408,3.1409,3.1416,3.1412,3.1421,3.1417,3.1419,3.1421,3.1421,3.1421,3.1417,3.1422,3.1433,3.1434,3.1421,3.1421,3.1421,0,3.1357,3.137,3.1379,3.1382,3.139,3.1394,3.1397,3.1402,3.1406,3.1411,3.1413,3.1419,3.1422,3.1426,3.1427,3.1425,3.1435,3.1432,3.1436,3.1435,3.1438,3.1437,3.1448,3.144,3.144,3.144,3.144,0,3.1371,3.1379,3.1383,3.1389,3.1397,3.1399,3.1407,3.141,3.1414,3.1419,3.1419,3.1424,3.1426,3.143,3.1431,3.1437,3.1439,3.1439,3.1439,3.1439,3.1439,3.144,3.1439,3.1441,3.1441,3.1441,3.1441,0,3.1382,3.1385,3.1395,3.14,3.1402,3.1407,3.1412,3.1416,3.1418,3.1425,3.1426,3.1429,3.1434,3.1436,3.1442,3.1443,3.145,3.145,3.1448,3.1448,3.1451,3.145,3.1463,3.1464,3.1456,3.1456,3.1456,0,3.139,3.1396,3.1402,3.1405,3.1408,3.1414,3.1418,3.142,3.1423,3.1428,3.1432,3.1437,3.1441,3.1449,3.1451,3.1455,3.1455,3.1459,3.1456,3.1454,3.1454,3.1453,3.1453,3.146,3.146,3.146,3.146,0,3.1403,3.1404,3.141,3.1415,3.1419,3.1424,3.1428,3.1431,3.1433,3.1436,3.1442,3.1445,3.1451,3.1455,3.1459,3.1461,3.146,3.1461,3.1462,3.1461,3.1459,3.1459,3.1449,3.146,3.146,3.146,3.146,3.146,3.1412,3.1417,3.1421,3.1426,3.143,3.1433,3.1437,3.1439,3.1444,3.1449,3.1449,3.1455,3.1457,3.1463,3.1465,3.1468,3.1467,3.1468,3.1469,3.1469,3.1469,3.1459,3.1469,3.1469,3.1469,3.1469,3.1469,0,3.1424,3.1427,3.1432,3.1437,3.1441,3.144,3.1444,3.1447,3.1452,3.1455,3.1459,3.1464,3.1468,3.147,3.1473,3.1475,3.1475,3.1476,3.1476,3.1476,3.147,3.1468,3.1476,3.1476,3.1476,3.1476,3.1476,3.1476,3.1431,3.1438,3.1439,3.1447,3.1449,3.1454,3.1456,3.1459,3.1461,3.1467,3.147,3.1471,3.1473,3.1477,3.148,3.148,3.1481,3.1482,3.1482,3.1477,3.1476,3.1476,3.1474,3.1483,3.1483,3.1488,3.1488,3.1488]}]]